| time (UTC) | temp C | wind direction | speed KPH | gust KPH | rain 1hr cm | rain 24hr cm | rain mn cm | humidity % | barometer mb |
| 20260504180559 | 24 | 214 | 3.2 | 14.5 | 0.00 | 0.00 | 0.00 | 30 | 1013.8 |
| 20260504180137 | 24 | 190 | 1.6 | 9.7 | 0.00 | 0.00 | 0.00 | 31 | 1014.1 |
| 20260504175557 | 24 | 179 | 3.2 | 9.7 | 0.00 | 0.00 | 0.00 | 31 | 1014.2 |
| 20260504175056 | 24 | 198 | 3.2 | 6.4 | 0.00 | 0.00 | 0.00 | 32 | 1014.2 |
| 20260504174554 | 24 | 223 | 1.6 | 9.7 | 0.00 | 0.00 | 0.00 | 32 | 1014.2 |
| 20260504174055 | 24 | 215 | 3.2 | 9.7 | 0.00 | 0.00 | 0.00 | 31 | 1014.3 |
| 20260504173554 | 24 | 196 | 1.6 | 8.0 | 0.00 | 0.00 | 0.00 | 34 | 1014.3 |
| 20260504173053 | 25 | 145 | 3.2 | 8.0 | 0.00 | 0.00 | 0.00 | 33 | 1014.4 |
| 20260504172553 | 25 | 214 | 0.0 | 6.4 | 0.00 | 0.00 | 0.00 | 32 | 1014.4 |
| 20260504172056 | 25 | 213 | 1.6 | 6.4 | 0.00 | 0.00 | 0.00 | 32 | 1014.5 |
| 20260504171553 | 25 | 199 | 0.0 | 6.4 | 0.00 | 0.00 | 0.00 | 32 | 1014.5 |
| 20260504171052 | 25 | 198 | 1.6 | 6.4 | 0.00 | 0.00 | 0.00 | 32 | 1014.7 |
| 20260504170551 | 25 | 163 | 1.6 | 4.8 | 0.00 | 0.00 | 0.00 | 30 | 1014.6 |
| 20260504151027 | 22 | 175 | 3.2 | 8.0 | 0.00 | 0.00 | 0.00 | 35 | 1015.8 |
| 20260504150526 | 22 | 151 | 1.6 | 12.9 | 0.00 | 0.00 | 0.00 | 35 | 1015.8 |
| 20260504141010 | 18 | 115 | 1.6 | 6.4 | 0.00 | 0.00 | 0.00 | 44 | 1016.0 |
| 20260504140508 | 18 | 127 | 0.0 | 3.2 | 0.00 | 0.00 | 0.00 | 47 | 1016.1 |
| 20260504130552 | 15 | 213 | 0.0 | 3.2 | 0.00 | 0.00 | 0.00 | 52 | 1016.3 |
| 20260504110525 | 10 | 130 | 1.6 | 3.2 | 0.00 | 0.00 | 0.00 | 55 | 1016.7 |
| 20260504100519 | 10 | 126 | 0.0 | 3.2 | 0.00 | 0.00 | 0.00 | 56 | 1016.5 |
| 20260504081512 | 10 | 140 | 0.0 | 0.0 | 0.00 | 0.00 | 0.00 | 56 | 1016.9 |
| 20260504081013 | 10 | 140 | 0.0 | 0.0 | 0.00 | 0.00 | 0.00 | 56 | 1016.9 |
| 20260504080512 | 10 | 140 | 0.0 | 0.0 | 0.00 | 0.00 | 0.00 | 56 | 1016.9 |
| 20260504060106 | 7 | 129 | 0.0 | 3.2 | 0.00 | 0.00 | 0.00 | 35 | 1017.0 |
| 20260504050551 | 7 | 111 | 0.0 | 3.2 | 0.00 | 0.00 | 0.00 | 39 | 1016.9 |
| 20260504045549 | 7 | 113 | 1.6 | 3.2 | 0.00 | 0.00 | 0.00 | 41 | 1016.8 |
| 20260504045048 | 7 | 119 | 0.0 | 3.2 | 0.00 | 0.00 | 0.00 | 41 | 1016.8 |
| 20260504044547 | 7 | 241 | 0.0 | 0.0 | 0.00 | 0.00 | 0.00 | 41 | 1016.8 |
| 20260504044047 | 7 | 241 | 0.0 | 0.0 | 0.00 | 0.00 | 0.00 | 41 | 1016.8 |
| 20260504043549 | 7 | 241 | 0.0 | 0.0 | 0.00 | 0.00 | 0.00 | 41 | 1016.8 |
| 20260504043055 | 7 | 241 | 0.0 | 0.0 | 0.00 | 0.00 | 0.00 | 42 | 1016.8 |
| 20260504042547 | 7 | 241 | 0.0 | 0.0 | 0.00 | 0.00 | 0.00 | 42 | 1016.8 |
| 20260504042049 | 7 | 241 | 0.0 | 0.0 | 0.00 | 0.00 | 0.00 | 42 | 1016.9 |
| 20260504041545 | 8 | 241 | 0.0 | 0.0 | 0.00 | 0.00 | 0.00 | 42 | 1016.9 |
| 20260504041043 | 8 | 241 | 0.0 | 0.0 | 0.00 | 0.00 | 0.00 | 43 | 1016.8 |
| 20260504040543 | 8 | 241 | 0.0 | 0.0 | 0.00 | 0.00 | 0.00 | 44 | 1016.8 |
| 20260504040044 | 8 | 241 | 0.0 | 0.0 | 0.00 | 0.00 | 0.00 | 44 | 1016.8 |
| 20260504035540 | 8 | 241 | 0.0 | 0.0 | 0.00 | 0.00 | 0.00 | 45 | 1016.9 |
| 20260504035044 | 8 | 241 | 0.0 | 0.0 | 0.00 | 0.00 | 0.00 | 46 | 1016.8 |
| 20260504034539 | 8 | 241 | 0.0 | 0.0 | 0.00 | 0.00 | 0.00 | 46 | 1016.9 |
| 20260504034035 | 8 | 241 | 0.0 | 0.0 | 0.00 | 0.00 | 0.00 | 47 | 1016.9 |
| 20260504033534 | 8 | 241 | 0.0 | 0.0 | 0.00 | 0.00 | 0.00 | 48 | 1016.8 |
| 20260504033037 | 8 | 241 | 0.0 | 0.0 | 0.00 | 0.00 | 0.00 | 48 | 1017.0 |
| 20260504032532 | 8 | 241 | 0.0 | 0.0 | 0.00 | 0.00 | 0.00 | 48 | 1016.8 |
| 20260504032033 | 8 | 241 | 0.0 | 0.0 | 0.00 | 0.00 | 0.00 | 49 | 1016.8 |
| 20260504031529 | 8 | 241 | 0.0 | 0.0 | 0.00 | 0.00 | 0.00 | 49 | 1016.8 |
| 20260504031027 | 8 | 241 | 0.0 | 0.0 | 0.00 | 0.00 | 0.00 | 50 | 1016.8 |
| 20260504030526 | 8 | 241 | 0.0 | 0.0 | 0.00 | 0.00 | 0.00 | 51 | 1016.7 |
| 20260504030024 | 8 | 241 | 0.0 | 0.0 | 0.00 | 0.00 | 0.00 | 51 | 1016.7 |
| 20260504025525 | 8 | 241 | 0.0 | 0.0 | 0.00 | 0.00 | 0.00 | 52 | 1016.8 |
| 20260504025023 | 8 | 241 | 0.0 | 0.0 | 0.00 | 0.00 | 0.00 | 52 | 1016.7 |
| 20260504024519 | 8 | 241 | 0.0 | 0.0 | 0.00 | 0.00 | 0.00 | 52 | 1016.8 |
| 20260504024019 | 9 | 241 | 0.0 | 0.0 | 0.00 | 0.00 | 0.00 | 52 | 1016.8 |
| 20260504023517 | 9 | 241 | 0.0 | 0.0 | 0.00 | 0.00 | 0.00 | 52 | 1016.8 |
| 20260504023016 | 9 | 241 | 0.0 | 0.0 | 0.00 | 0.00 | 0.00 | 52 | 1016.8 |
| 20260504022515 | 9 | 241 | 0.0 | 0.0 | 0.00 | 0.00 | 0.00 | 53 | 1016.8 |
| 20260504022015 | 9 | 241 | 0.0 | 0.0 | 0.00 | 0.00 | 0.00 | 53 | 1016.7 |
| 20260504021515 | 9 | 241 | 0.0 | 0.0 | 0.00 | 0.00 | 0.00 | 53 | 1016.7 |
| 20260504021012 | 10 | 241 | 0.0 | 0.0 | 0.00 | 0.00 | 0.00 | 54 | 1016.8 |
| 20260504020511 | 10 | 241 | 0.0 | 0.0 | 0.00 | 0.00 | 0.00 | 54 | 1016.8 |
| 20260504020009 | 10 | 241 | 0.0 | 0.0 | 0.00 | 0.00 | 0.00 | 54 | 1016.8 |
| 20260504015508 | 10 | 241 | 0.0 | 0.0 | 0.00 | 0.00 | 0.00 | 54 | 1016.7 |
| 20260504015007 | 10 | 241 | 0.0 | 0.0 | 0.00 | 0.00 | 0.00 | 54 | 1016.6 |
| 20260504014505 | 10 | 241 | 0.0 | 0.0 | 0.00 | 0.00 | 0.00 | 55 | 1016.6 |
| 20260504014003 | 10 | 241 | 0.0 | 0.0 | 0.00 | 0.00 | 0.00 | 55 | 1016.6 |
| 20260504013503 | 10 | 241 | 0.0 | 0.0 | 0.00 | 0.00 | 0.00 | 56 | 1016.6 |
| 20260504013107 | 11 | 241 | 0.0 | 0.0 | 0.00 | 0.00 | 0.00 | 56 | 1016.7 |
| 20260504012559 | 11 | 241 | 0.0 | 0.0 | 0.00 | 0.00 | 0.00 | 56 | 1016.6 |
| 20260504012058 | 11 | 241 | 0.0 | 0.0 | 0.00 | 0.00 | 0.00 | 56 | 1016.6 |
| 20260504011556 | 11 | 241 | 0.0 | 0.0 | 0.00 | 0.00 | 0.00 | 56 | 1016.5 |
| 20260504011057 | 11 | 241 | 0.0 | 0.0 | 0.00 | 0.00 | 0.00 | 56 | 1016.4 |
| 20260504010553 | 11 | 241 | 0.0 | 0.0 | 0.00 | 0.00 | 0.00 | 55 | 1016.5 |
| 20260504010052 | 11 | 241 | 0.0 | 0.0 | 0.00 | 0.00 | 0.00 | 54 | 1016.6 |
| 20260504005551 | 12 | 241 | 0.0 | 0.0 | 0.00 | 0.00 | 0.00 | 53 | 1016.6 |
| 20260504005050 | 12 | 241 | 0.0 | 0.0 | 0.00 | 0.00 | 0.00 | 53 | 1016.7 |
| 20260504004548 | 12 | 241 | 0.0 | 0.0 | 0.00 | 0.00 | 0.00 | 52 | 1016.5 |
| 20260504004046 | 12 | 241 | 0.0 | 0.0 | 0.00 | 0.00 | 0.00 | 52 | 1016.5 |
| 20260504003544 | 12 | 241 | 0.0 | 0.0 | 0.00 | 0.00 | 0.00 | 51 | 1016.4 |
| 20260504003046 | 12 | 241 | 0.0 | 0.0 | 0.00 | 0.00 | 0.00 | 49 | 1016.3 |
| 20260504002545 | 13 | 241 | 0.0 | 0.0 | 0.00 | 0.00 | 0.00 | 48 | 1016.3 |
| 20260504002040 | 13 | 241 | 0.0 | 0.0 | 0.00 | 0.00 | 0.00 | 47 | 1016.3 |
| 20260504001540 | 13 | 241 | 0.0 | 0.0 | 0.00 | 0.00 | 0.00 | 47 | 1016.2 |
| 20260504001038 | 13 | 241 | 0.0 | 0.0 | 0.00 | 0.00 | 0.00 | 46 | 1016.1 |
| 20260504000540 | 13 | 241 | 0.0 | 0.0 | 0.00 | 0.00 | 0.00 | 44 | 1016.0 |
| 20260504000038 | 14 | 241 | 0.0 | 0.0 | 0.00 | 0.00 | 0.00 | 44 | 1016.0 |
| 20260503235533 | 14 | 241 | 0.0 | 0.0 | 0.00 | 0.00 | 0.00 | 43 | 1016.0 |
| 20260503235032 | 14 | 241 | 0.0 | 0.0 | 0.00 | 0.00 | 0.00 | 42 | 1015.8 |
| 20260503234530 | 15 | 241 | 0.0 | 0.0 | 0.00 | 0.00 | 0.00 | 41 | 1015.8 |
| 20260503234029 | 15 | 241 | 0.0 | 0.0 | 0.00 | 0.00 | 0.00 | 40 | 1015.8 |
| 20260503233528 | 15 | 241 | 0.0 | 0.0 | 0.00 | 0.00 | 0.00 | 41 | 1015.8 |
| 20260503233026 | 15 | 241 | 0.0 | 0.0 | 0.00 | 0.00 | 0.00 | 42 | 1015.8 |
| 20260503232524 | 15 | 241 | 0.0 | 0.0 | 0.00 | 0.00 | 0.00 | 42 | 1015.8 |
| 20260503232023 | 15 | 241 | 0.0 | 0.0 | 0.00 | 0.00 | 0.00 | 42 | 1015.7 |
| 20260503231523 | 15 | 241 | 0.0 | 0.0 | 0.00 | 0.00 | 0.00 | 40 | 1015.7 |
| 20260503231020 | 15 | 241 | 0.0 | 0.0 | 0.00 | 0.00 | 0.00 | 39 | 1015.7 |
| 20260503230521 | 15 | 241 | 0.0 | 0.0 | 0.00 | 0.00 | 0.00 | 38 | 1015.6 |
| 20260503230018 | 15 | 241 | 0.0 | 0.0 | 0.00 | 0.00 | 0.00 | 38 | 1015.7 |
| 20260503225516 | 15 | 241 | 0.0 | 0.0 | 0.00 | 0.00 | 0.00 | 37 | 1015.8 |
| 20260503225014 | 16 | 241 | 0.0 | 0.0 | 0.00 | 0.00 | 0.00 | 35 | 1015.8 |
| 20260503224513 | 16 | 241 | 0.0 | 0.0 | 0.00 | 0.00 | 0.00 | 37 | 1015.7 |
| 20260503224011 | 16 | 241 | 0.0 | 0.0 | 0.00 | 0.00 | 0.00 | 35 | 1015.7 |
| 20260503223510 | 16 | 241 | 0.0 | 0.0 | 0.00 | 0.00 | 0.00 | 36 | 1015.8 |
| 20260503223009 | 16 | 241 | 0.0 | 1.6 | 0.00 | 0.00 | 0.00 | 35 | 1015.8 |
| 20260503222508 | 16 | 241 | 0.0 | 1.6 | 0.00 | 0.00 | 0.00 | 35 | 1015.9 |
| 20260503222005 | 16 | 241 | 0.0 | 0.0 | 0.00 | 0.00 | 0.00 | 35 | 1015.8 |
| 20260503221506 | 16 | 241 | 0.0 | 1.6 | 0.00 | 0.00 | 0.00 | 35 | 1015.9 |
| 20260503221003 | 16 | 241 | 0.0 | 1.6 | 0.00 | 0.00 | 0.00 | 34 | 1015.9 |
| 20260503220504 | 16 | 241 | 0.0 | 3.2 | 0.00 | 0.00 | 0.00 | 33 | 1016.1 |
| 20260503220101 | 16 | 241 | 0.0 | 3.2 | 0.00 | 0.00 | 0.00 | 33 | 1016.1 |
| 20260503215558 | 16 | 241 | 0.0 | 4.8 | 0.00 | 0.00 | 0.00 | 33 | 1016.2 |
| 20260503215057 | 16 | 241 | 0.0 | 6.4 | 0.00 | 0.00 | 0.00 | 33 | 1016.1 |
| 20260503214555 | 16 | 242 | 1.6 | 4.8 | 0.00 | 0.00 | 0.00 | 33 | 1016.2 |
| 20260503214054 | 16 | 242 | 0.0 | 6.4 | 0.00 | 0.00 | 0.00 | 32 | 1016.2 |
| 20260503213553 | 16 | 129 | 0.0 | 0.0 | 0.00 | 0.00 | 0.00 | 31 | 1016.1 |
| 20260503213100 | 16 | 129 | 0.0 | 3.2 | 0.00 | 0.00 | 0.00 | 32 | 1016.1 |
| 20260503212550 | 16 | 129 | 1.6 | 4.8 | 0.00 | 0.00 | 0.00 | 32 | 1016.1 |
| 20260503212047 | 16 | 130 | 1.6 | 4.8 | 0.00 | 0.00 | 0.00 | 32 | 1016.1 |
| 20260503211605 | 16 | 116 | 0.0 | 4.8 | 0.00 | 0.00 | 0.00 | 33 | 1015.9 |
| 20260503211045 | 16 | 226 | 0.0 | 3.2 | 0.00 | 0.00 | 0.00 | 31 | 1015.9 |
| 20260503210546 | 16 | 290 | 0.0 | 4.8 | 0.00 | 0.00 | 0.00 | 31 | 1016.0 |
| 20260503210043 | 17 | 290 | 0.0 | 6.4 | 0.00 | 0.00 | 0.00 | 30 | 1016.0 |
| 20260503205541 | 17 | 268 | 0.0 | 6.4 | 0.00 | 0.00 | 0.00 | 30 | 1016.1 |
| 20260503205039 | 17 | 268 | 0.0 | 4.8 | 0.00 | 0.00 | 0.00 | 30 | 1016.1 |
| 20260503204538 | 17 | 268 | 1.6 | 4.8 | 0.00 | 0.00 | 0.00 | 30 | 1016.0 |
| 20260503204037 | 17 | 265 | 1.6 | 6.4 | 0.00 | 0.00 | 0.00 | 30 | 1016.1 |
| 20260503203536 | 17 | 266 | 3.2 | 6.4 | 0.00 | 0.00 | 0.00 | 30 | 1016.0 |
| 20260503203039 | 18 | 360 | 1.6 | 4.8 | 0.00 | 0.00 | 0.00 | 29 | 1016.0 |
| 20260503202532 | 18 | 49 | 0.0 | 4.8 | 0.00 | 0.00 | 0.00 | 28 | 1016.1 |
| 20260503202030 | 18 | 63 | 0.0 | 4.8 | 0.00 | 0.00 | 0.00 | 29 | 1016.2 |
| 20260503201529 | 18 | 315 | 1.6 | 4.8 | 0.00 | 0.00 | 0.00 | 28 | 1016.2 |
| 20260503201027 | 19 | 12 | 1.6 | 4.8 | 0.00 | 0.00 | 0.00 | 28 | 1016.2 |
| 20260503200526 | 19 | 339 | 1.6 | 4.8 | 0.00 | 0.00 | 0.00 | 29 | 1016.3 |
| 20260503200033 | 18 | 5 | 1.6 | 4.8 | 0.00 | 0.00 | 0.00 | 29 | 1016.3 |
| 20260503195524 | 18 | 355 | 1.6 | 4.8 | 0.00 | 0.00 | 0.00 | 29 | 1016.5 |
| 20260503195021 | 19 | 303 | 1.6 | 6.4 | 0.00 | 0.00 | 0.00 | 29 | 1016.7 |
| 20260503194520 | 19 | 234 | 1.6 | 9.7 | 0.00 | 0.00 | 0.00 | 29 | 1016.7 |
| 20260503194018 | 18 | 336 | 1.6 | 9.7 | 0.00 | 0.00 | 0.00 | 28 | 1016.7 |
| 20260503193517 | 18 | 346 | 1.6 | 4.8 | 0.00 | 0.00 | 0.00 | 28 | 1016.8 |
| 20260503193015 | 19 | 22 | 3.2 | 6.4 | 0.00 | 0.00 | 0.00 | 28 | 1016.8 |
| 20260503192514 | 19 | 263 | 1.6 | 6.4 | 0.00 | 0.00 | 0.00 | 29 | 1016.9 |
| 20260503192012 | 19 | 34 | 0.0 | 6.4 | 0.00 | 0.00 | 0.00 | 28 | 1016.9 |
| 20260503191516 | 19 | 326 | 1.6 | 6.4 | 0.00 | 0.00 | 0.00 | 28 | 1017.0 |
| 20260503191010 | 20 | 341 | 3.2 | 8.0 | 0.00 | 0.00 | 0.00 | 27 | 1017.2 |
| 20260503190507 | 20 | 88 | 0.0 | 6.4 | 0.00 | 0.00 | 0.00 | 29 | 1017.4 |
| 20260503190009 | 20 | 332 | 3.2 | 8.0 | 0.00 | 0.00 | 0.00 | 28 | 1017.3 |
| 20260503185506 | 20 | 157 | 1.6 | 4.8 | 0.00 | 0.00 | 0.00 | 29 | 1017.4 |
| 20260503185003 | 20 | 148 | 0.0 | 4.8 | 0.00 | 0.00 | 0.00 | 31 | 1017.5 |
| 20260503184633 | 20 | 148 | 1.6 | 3.2 | 0.00 | 0.00 | 0.00 | 31 | 1017.5 |
| 20260503184102 | 19 | 133 | 1.6 | 6.4 | 0.00 | 0.00 | 0.00 | 33 | 1017.4 |
| 20260503183559 | 19 | 116 | 3.2 | 6.4 | 0.00 | 0.00 | 0.00 | 29 | 1017.6 |
| 20260503183101 | 19 | 237 | 1.6 | 6.4 | 0.00 | 0.00 | 0.00 | 31 | 1017.6 |
| 20260503182556 | 19 | 242 | 1.6 | 8.0 | 0.00 | 0.00 | 0.00 | 31 | 1017.6 |
| 20260503182055 | 19 | 234 | 1.6 | 8.0 | 0.00 | 0.00 | 0.00 | 31 | 1017.6 |
| 20260503181611 | 19 | 29 | 0.0 | 4.8 | 0.00 | 0.00 | 0.00 | 32 | 1017.8 |
| 20260503181053 | 18 | 30 | 3.2 | 6.4 | 0.00 | 0.00 | 0.00 | 31 | 1017.8 |